Simultaneous Nadir Overpasses (SNOs) Predictions

Prediction of SNOs between GOES-17 and LANDSAT-8 Satellite Orbit:

Table of predicted SNOs for the next 14.0 days since TLE Epoch: 6/17/2023
Index Date Time (GOES-17) GOES-17 Lat,Lon LANDSAT-8 Lat,Lon Distance(km) Time Diff (sec)
1 06/17/2023 17:06:04 -0.01,-104.73 -0.30,-103.28 164.57 80
2 06/18/2023 05:27:28 0.01,-104.70 -0.82,-108.47 428.62 80
3 06/20/2023 05:15:17 0.00,-104.70 -0.18,-105.51 92.05 80
4 06/22/2023 05:00:26 -0.00,-104.70 0.48,-102.56 244.90 80
5 06/22/2023 17:21:40 0.00,-104.73 0.65,-107.70 338.40 80
6 06/24/2023 17:12:09 0.01,-104.74 0.03,-104.74 3.26 80
7 06/26/2023 16:59:58 0.01,-104.74 -0.65,-101.79 336.78 80
8 06/27/2023 05:21:20 -0.01,-104.72 -0.51,-106.96 255.58 80
9 06/29/2023 05:06:28 -0.01,-104.73 0.14,-104.00 81.89 80
